Jackson, MN

3:15 PM CST on December 09, 2019 (GMT -0600)
Jackson Municipal

Weather History for KMJQ - November, 2019

Change the Weather History Date:

Tuesday, November 19, 2019

  Actual Average Record
Temperature  
Mean Temperature 38 °F -  
Max Temperature 44 °F 37 °F 59 °F (2012)
Min Temperature 32 °F 22 °F 10 °F (2018)
Degree Days  
Heating Degree Days 26    
Moisture  
Dew Point 33 °F    
Average Humidity 83    
Maximum Humidity 100    
Minimum Humidity 70    
Precipitation  
Precipitation 0.00 in - - ()
Sea Level Pressure  
Sea Level Pressure 29.83 in    
Wind  
Wind Speed 8 mph ()    
Max Wind Speed 16 mph    
Max Gust Speed 22 mph    
Visibility 10.0 miles    
Events      
Averages and records for this station are not official NWS values.
T = Trace of Precipitation, MM = Missing Value Source: Averaged Metar Reports

Daily Weather History Graph

Daily Weather History Graph

Search for Another Location

Airport or City:

Astronomy

Nov. 19, 2019 Rise Set
Actual Time 7:18 AM CST 4:51 PM CST
Civil Twilight 6:47 AM CST 5:22 PM CST
Nautical Twilight 6:12 AM CST 5:57 PM CST
Astronomical Twilight 5:38 AM CST 6:31 PM CST
Moon 11:50 PM CST (11/19) 1:28 PM CST (11/19)
Length of Visible Light 10h 34m
Length of Day
9h 32m
Waning Gibbous, 51% of the Moon is Illuminated
Nov 19
Waning Gibbous
Nov 19
Last Quarter
Nov 26
New
Dec 4
First Quarter
Dec 11
Full

Hourly Weather History & Observations

Time (CST) Temp. Windchill Dew Point Humidity Pressure Visibility Wind Dir Wind Speed Gust Speed Precip Events Conditions
12:15 AM 37.4 °F 32.8 °F 35.6 °F 93% 29.70 in 10.0 mi NW 5.8 mph - N/A   Scattered Clouds
12:35 AM 37.4 °F 31.4 °F 35.6 °F 93% 29.70 in 10.0 mi WNW 8.1 mph - N/A   Clear
12:36 AM 37.4 °F 31.4 °F 35.6 °F 93% 29.70 in 10.0 mi WNW 8.1 mph - N/A   Clear
12:55 AM 37.4 °F 32.1 °F 35.6 °F 93% 29.70 in 10.0 mi West 6.9 mph - N/A   Clear
1:15 AM 35.6 °F 29.2 °F 33.8 °F 93% 29.71 in 10.0 mi West 8.1 mph - N/A   Scattered Clouds
1:35 AM 35.6 °F 28.6 °F 33.8 °F 93% 29.71 in 10.0 mi WNW 9.2 mph - N/A   Scattered Clouds
1:55 AM 35.6 °F 29.2 °F 33.8 °F 93% 29.71 in 10.0 mi West 8.1 mph - N/A   Scattered Clouds
2:15 AM 35.6 °F 27.5 °F 33.8 °F 93% 29.72 in 10.0 mi West 11.5 mph - N/A   Clear
2:16 AM 35.6 °F 27.5 °F 33.8 °F 93% 29.72 in 10.0 mi West 11.5 mph - N/A   Clear
2:35 AM 35.6 °F 29.2 °F 33.8 °F 93% 29.72 in 10.0 mi West 8.1 mph - N/A   Clear
2:55 AM 35.6 °F 28.6 °F 33.8 °F 93% 29.72 in 10.0 mi WNW 9.2 mph - N/A   Scattered Clouds
3:15 AM 35.6 °F 28.6 °F 33.8 °F 93% 29.72 in 10.0 mi West 9.2 mph - N/A   Scattered Clouds
3:16 AM 35.6 °F 28.6 °F 33.8 °F 93% 29.72 in 10.0 mi West 9.2 mph - N/A   Scattered Clouds
3:35 AM 35.6 °F 29.9 °F 32.0 °F 87% 29.72 in 10.0 mi West 6.9 mph - N/A   Clear
3:36 AM 35.6 °F 29.9 °F 32.0 °F 87% 29.72 in 10.0 mi West 6.9 mph - N/A   Clear
3:55 AM 35.6 °F 29.2 °F 32.0 °F 87% 29.72 in 10.0 mi WNW 8.1 mph - N/A   Clear
3:56 AM 35.6 °F 29.2 °F 32.0 °F 87% 29.72 in 10.0 mi WNW 8.1 mph - N/A   Clear
4:15 AM 35.6 °F 28.6 °F 32.0 °F 87% 29.72 in 10.0 mi West 9.2 mph - N/A   Scattered Clouds
4:16 AM 35.6 °F 28.6 °F 32.0 °F 87% 29.72 in 10.0 mi West 9.2 mph - N/A   Scattered Clouds
4:35 AM 35.6 °F 27.5 °F 32.0 °F 87% 29.72 in 10.0 mi WNW 11.5 mph - N/A   Scattered Clouds
4:36 AM 35.6 °F 27.1 °F 32.0 °F 87% 29.72 in 10.0 mi WNW 12.7 mph - N/A   Scattered Clouds
4:55 AM 35.6 °F 28.0 °F 32.0 °F 87% 29.73 in 10.0 mi WNW 10.4 mph - N/A   Scattered Clouds
5:15 AM 35.6 °F 27.5 °F 32.0 °F 87% 29.73 in 10.0 mi WNW 11.5 mph - N/A   Clear
5:16 AM 35.6 °F 27.5 °F 32.0 °F 87% 29.73 in 10.0 mi WNW 11.5 mph - N/A   Clear
5:35 AM 35.6 °F 27.1 °F 32.0 °F 87% 29.74 in 10.0 mi WNW 12.7 mph - N/A   Scattered Clouds
5:55 AM 35.6 °F 27.5 °F 32.0 °F 87% 29.74 in 10.0 mi WNW 11.5 mph - N/A   Clear
5:56 AM 35.6 °F 27.1 °F 32.0 °F 87% 29.74 in 10.0 mi WNW 12.7 mph - N/A   Clear
6:15 AM 35.6 °F 27.5 °F 32.0 °F 87% 29.75 in 10.0 mi NW 11.5 mph - N/A   Clear
6:35 AM 35.6 °F 27.5 °F 32.0 °F 87% 29.76 in 10.0 mi WNW 11.5 mph - N/A   Scattered Clouds
6:55 AM 35.6 °F 28.0 °F 32.0 °F 87% 29.77 in 10.0 mi WNW 10.4 mph - N/A   Mostly Cloudy
7:15 AM 35.6 °F 28.0 °F 32.0 °F 87% 29.78 in 10.0 mi NW 10.4 mph - N/A   Scattered Clouds
7:16 AM 35.6 °F 28.0 °F 32.0 °F 87% 29.78 in 10.0 mi WNW 10.4 mph - N/A   Scattered Clouds
7:35 AM 33.8 °F 27.0 °F 32.0 °F 93% 29.79 in 10.0 mi West 8.1 mph - N/A   Clear
7:55 AM 33.8 °F 26.4 °F 32.0 °F 93% 29.79 in 10.0 mi WNW 9.2 mph - N/A   Clear
8:15 AM 35.6 °F 27.1 °F 32.0 °F 87% 29.79 in 10.0 mi WNW 12.7 mph 19.6 mph N/A   Clear
8:16 AM 35.6 °F 27.1 °F 32.0 °F 87% 29.80 in 10.0 mi WNW 12.7 mph 19.6 mph N/A   Clear
8:35 AM 35.6 °F 26.6 °F 32.0 °F 87% 29.80 in 10.0 mi WNW 13.8 mph 18.4 mph N/A   Clear
8:36 AM 35.6 °F 26.6 °F 32.0 °F 87% 29.80 in 10.0 mi WNW 13.8 mph 18.4 mph N/A   Clear
8:55 AM 37.4 °F 28.5 °F 32.0 °F 81% 29.81 in 10.0 mi WNW 15.0 mph - N/A   Clear
8:56 AM 37.4 °F 28.5 °F 32.0 °F 81% 29.81 in 10.0 mi WNW 15.0 mph - N/A   Clear
9:15 AM 37.4 °F 28.2 °F 32.0 °F 81% 29.81 in 10.0 mi NW 16.1 mph - N/A   Clear
9:35 AM 37.4 °F 28.5 °F 32.0 °F 81% 29.82 in 10.0 mi WNW 15.0 mph - N/A   Clear
9:36 AM 37.4 °F 29.3 °F 32.0 °F 81% 29.82 in 10.0 mi WNW 12.7 mph - N/A   Clear
9:56 AM 39.2 °F 32.0 °F 33.8 °F 81% 29.83 in 10.0 mi WNW 11.5 mph - N/A   Clear
10:15 AM 39.2 °F 30.8 °F 33.8 °F 81% 29.84 in 10.0 mi WNW 15.0 mph 18.4 mph N/A   Clear
10:35 AM 41.0 °F 34.3 °F 33.8 °F 76% 29.84 in 10.0 mi WNW 11.5 mph 18.4 mph N/A   Clear
10:55 AM 41.0 °F 34.3 °F 33.8 °F 76% 29.85 in 10.0 mi WNW 11.5 mph - N/A   Clear
11:15 AM 41.0 °F 34.3 °F 35.6 °F 81% 29.85 in 10.0 mi West 11.5 mph - N/A   Clear
11:16 AM 41.0 °F 34.3 °F 35.6 °F 81% 29.85 in 10.0 mi West 11.5 mph - N/A   Clear
11:35 AM 42.8 °F 37.0 °F 35.6 °F 76% 29.85 in 10.0 mi West 10.4 mph - N/A   Scattered Clouds
11:36 AM 42.8 °F 36.6 °F 35.6 °F 76% 29.85 in 10.0 mi WNW 11.5 mph - N/A   Scattered Clouds
11:55 AM 42.8 °F 37.0 °F 35.6 °F 76% 29.85 in 10.0 mi West 10.4 mph 17.3 mph N/A   Scattered Clouds
12:15 PM 42.8 °F 35.4 °F 35.6 °F 76% 29.85 in 10.0 mi West 15.0 mph - N/A   Scattered Clouds
12:16 PM 42.8 °F 35.4 °F 35.6 °F 76% 29.85 in 10.0 mi WNW 15.0 mph - N/A   Scattered Clouds
12:35 PM 44.6 °F 38.1 °F 35.6 °F 71% 29.86 in 10.0 mi West 13.8 mph - N/A   Scattered Clouds
12:36 PM 44.6 °F 37.8 °F 35.6 °F 71% 29.85 in 10.0 mi WNW 15.0 mph - N/A   Scattered Clouds
12:55 PM 44.6 °F 37.8 °F 35.6 °F 71% 29.85 in 10.0 mi NW 15.0 mph 21.9 mph N/A   Mostly Cloudy
1:15 PM 42.8 °F 35.8 °F 33.8 °F 70% 29.86 in 10.0 mi NW 13.8 mph 19.6 mph N/A   Mostly Cloudy
1:35 PM 42.8 °F 35.1 °F 33.8 °F 70% 29.86 in 10.0 mi NW 16.1 mph 20.7 mph N/A   Overcast
1:55 PM 42.8 °F 36.6 °F 33.8 °F 70% 29.87 in 10.0 mi NW 11.5 mph - N/A   Overcast
2:15 PM 42.8 °F 36.6 °F 33.8 °F 70% 29.87 in 10.0 mi NNW 11.5 mph 17.3 mph N/A   Overcast
2:55 PM 42.8 °F 37.0 °F 33.8 °F 70% 29.88 in 10.0 mi NW 10.4 mph - N/A   Overcast
3:15 PM 42.8 °F 39.3 °F 33.8 °F 70% 29.88 in 10.0 mi NNW 5.8 mph - N/A   Overcast
3:35 PM 42.8 °F 38.0 °F 33.8 °F 70% 29.88 in 10.0 mi NNW 8.1 mph - N/A   Overcast
3:36 PM 42.8 °F 37.5 °F 33.8 °F 70% 29.88 in 10.0 mi NNW 9.2 mph - N/A   Overcast
3:55 PM 41.0 °F 38.0 °F 32.0 °F 70% 29.89 in 10.0 mi NNW 4.6 mph - N/A   Overcast
3:56 PM 41.0 °F 38.0 °F 32.0 °F 70% 29.89 in 10.0 mi North 4.6 mph - N/A   Overcast
4:15 PM 41.0 °F 37.1 °F 33.8 °F 76% 29.89 in 10.0 mi NW 5.8 mph - N/A   Overcast
4:36 PM 41.0 °F - 33.8 °F 76% 29.90 in 10.0 mi Calm Calm - N/A   Overcast
4:55 PM 41.0 °F - 33.8 °F 76% 29.90 in 10.0 mi Calm Calm - N/A   Overcast
5:16 PM 41.0 °F 38.0 °F 33.8 °F 76% 29.90 in 10.0 mi NW 4.6 mph - N/A   Overcast
5:35 PM 41.0 °F 39.0 °F 32.0 °F 70% 29.90 in 10.0 mi North 3.5 mph - N/A   Overcast
5:36 PM 41.0 °F - 32.0 °F 70% 29.90 in 10.0 mi Calm Calm - N/A   Overcast
5:55 PM 39.2 °F 37.0 °F 32.0 °F 75% 29.90 in 10.0 mi NNE 3.5 mph - N/A   Overcast
6:15 PM 37.4 °F 32.8 °F 32.0 °F 81% 29.91 in 10.0 mi NE 5.8 mph - N/A   Overcast
6:35 PM 41.0 °F 39.0 °F 32.0 °F 70% 29.91 in 10.0 mi NNE 3.5 mph - N/A   Overcast
6:55 PM 39.2 °F - 32.0 °F 75% 29.92 in 10.0 mi Calm Calm - N/A   Overcast
7:15 PM 39.2 °F - 32.0 °F 75% 29.93 in 10.0 mi Calm Calm - N/A   Overcast
7:35 PM 39.2 °F 37.0 °F 32.0 °F 75% 29.93 in 10.0 mi NNW 3.5 mph - N/A   Overcast
7:55 PM 39.2 °F - 32.0 °F 75% 29.94 in 10.0 mi Calm Calm - N/A   Overcast
7:56 PM 39.2 °F - 32.0 °F 75% 29.94 in 10.0 mi Calm Calm - N/A   Overcast
8:15 PM 39.2 °F - 32.0 °F 75% 29.95 in 10.0 mi Calm Calm - N/A   Overcast
8:35 PM 39.2 °F - 32.0 °F 75% 29.95 in 10.0 mi Calm Calm - N/A   Overcast
8:55 PM 37.4 °F 33.8 °F 32.0 °F 81% 29.95 in 10.0 mi East 4.6 mph - N/A   Overcast
8:56 PM 37.4 °F 34.9 °F 32.0 °F 81% 29.95 in 10.0 mi East 3.5 mph - N/A   Overcast
9:15 PM 35.6 °F 32.8 °F 32.0 °F 87% 29.95 in 10.0 mi ENE 3.5 mph - N/A   Scattered Clouds
9:35 PM 33.8 °F 29.6 °F 32.0 °F 93% 29.96 in 10.0 mi East 4.6 mph - N/A   Scattered Clouds
9:36 PM 33.8 °F 29.6 °F 32.0 °F 93% 29.96 in 10.0 mi East 4.6 mph - N/A   Scattered Clouds
9:55 PM 33.8 °F 30.8 °F 32.0 °F 93% 29.97 in 10.0 mi East 3.5 mph - N/A   Scattered Clouds
10:15 PM 33.8 °F - 32.0 °F 93% 29.97 in 10.0 mi Calm Calm - N/A   Clear
10:35 PM 33.8 °F 30.8 °F 32.0 °F 93% 29.97 in 10.0 mi ESE 3.5 mph - N/A   Clear
10:36 PM 33.8 °F 30.8 °F 32.0 °F 93% 29.97 in 10.0 mi East 3.5 mph - N/A   Clear
10:55 PM 33.8 °F 30.8 °F 32.0 °F 93% 29.98 in 10.0 mi SSE 3.5 mph - N/A   Clear
10:56 PM 33.8 °F 30.8 °F 32.0 °F 93% 29.98 in 10.0 mi SSE 3.5 mph - N/A   Clear
11:15 PM 33.8 °F 30.8 °F 32.0 °F 93% 29.98 in 10.0 mi ESE 3.5 mph - N/A   Mostly Cloudy
11:35 PM 32.0 °F 27.5 °F 32.0 °F 100% 29.98 in 10.0 mi ESE 4.6 mph - N/A   Mostly Cloudy